Weather History for Rolla, MO

Change the Weather History Date:

Friday, January 4, 2013

  Actual Average Record
Temperature  
Mean Temperature 27 °F 31 °F  
Max Temperature 38 °F 40 °F 66 °F (1950)
Min Temperature 15 °F 22 °F -8 °F (1959)
Degree Days  
Heating Degree Days 38 34  
Month to date heating degree days 171 136  
Since 1 July heating degree days 1924 2053  
Cooling Degree Days 0 0  
Month to date cooling degree days 0 0  
Year to date cooling degree days 0 0  
Moisture  
Dew Point 20 °F    
Average Humidity 70    
Maximum Humidity 88    
Minimum Humidity 52    
Precipitation  
Precipitation 0.00 in 0.08 in 2.12 in (1993)
Month to date precipitation 0.00 0.31  
Year to date precipitation 0.00 0.31  
Sea Level Pressure  
Sea Level Pressure 30.37 in    
Wind  
Wind Speed 7 mph (SW)    
Max Wind Speed 15 mph    
Max Gust Speed 18 mph    
Visibility 10 miles    
Events      
T = Trace of Precipitation, MM = Missing Value Source: NWS Daily Summary

Daily Weather History Graph

Daily Weather History Graph

Search for Another Location

Airport:

Trip Planner

Search our weather history database for the weather conditions in past years. The results will help you decide how hot, cold, wet, or windy it might be!

Date:

Astronomy

Jan. 04, 2013 Rise Set
Actual Time 7:23 AM CST 5:00 PM CST
Civil Twilight 6:54 AM CST 5:30 PM CST
Nautical Twilight 6:21 AM CST 6:03 PM CST
Astronomical Twilight 5:49 AM CST 6:35 PM CST
Moon No Moon Rise 11:13 AM CST (1/4)
Length of Visible Light 10h 35m
Length of Day
9h 37m
Waning Gibbous, 55% of the Moon is Illuminated
Jan 4
Waning Gibbous
Jan 4
Last Quarter
Jan 11
New
Jan 18
First Quarter
Jan 26
Full

Hourly Weather History & Observations

Time (CST) Temp. Windchill Dew Point Humidity Pressure Visibility Wind Dir Wind Speed Gust Speed Precip Events Conditions
12:53 AM 25.0 °F - 21.0 °F 85% 30.39 in 10.0 mi Calm Calm - N/A   Overcast
1:53 AM 24.1 °F - 19.9 °F 84% 30.39 in 10.0 mi Calm Calm - N/A   Overcast
2:53 AM 26.1 °F - 21.9 °F 84% 30.39 in 10.0 mi Calm Calm - N/A   Overcast
3:48 AM 26.6 °F 22.6 °F 21.2 °F 80% 30.36 in 10.0 mi West 3.5 mph - N/A   Overcast
3:53 AM 26.1 °F 21.9 °F 21.9 °F 84% 30.40 in 10.0 mi West 3.5 mph - N/A   Overcast
4:05 AM 26.6 °F - 21.2 °F 80% 30.36 in 10.0 mi Calm Calm - N/A   Overcast
4:43 AM 19.4 °F 14.3 °F 17.6 °F 93% 30.36 in 10.0 mi WSW 3.5 mph - N/A   Mostly Cloudy
4:53 AM 21.0 °F 16.2 °F 17.1 °F 85% 30.40 in 10.0 mi West 3.5 mph - N/A   Mostly Cloudy
5:53 AM 23.0 °F 17.0 °F 19.9 °F 88% 30.40 in 10.0 mi SW 4.6 mph - N/A   Overcast
6:44 AM 19.4 °F 12.8 °F 17.6 °F 93% 30.36 in 10.0 mi SSW 4.6 mph - N/A   Scattered Clouds
6:53 AM 19.4 °F 11.5 °F 15.8 °F 86% 30.36 in 10.0 mi SSW 5.8 mph - N/A   Clear
7:53 AM 24.1 °F 17.0 °F 19.9 °F 84% 30.42 in 10.0 mi SW 5.8 mph - N/A   Overcast
8:53 AM 24.1 °F 16.0 °F 21.0 °F 88% 30.44 in 10.0 mi WSW 6.9 mph - N/A   Scattered Clouds
9:53 AM 28.9 °F 20.4 °F 21.9 °F 75% 30.44 in 10.0 mi SW 9.2 mph - N/A   Clear
10:53 AM 30.9 °F 22.2 °F 21.0 °F 67% 30.44 in 10.0 mi SW 10.4 mph - N/A   Clear
11:53 AM 33.1 °F 23.0 °F 19.0 °F 56% 30.42 in 10.0 mi WSW 15.0 mph - N/A   Clear
12:53 PM 35.1 °F 27.4 °F 19.0 °F 52% 30.39 in 10.0 mi WSW 10.4 mph - N/A   Clear
1:53 PM 36.0 °F 30.3 °F 21.0 °F 55% 30.36 in 10.0 mi SW 6.9 mph - N/A   Clear
2:53 PM 37.9 °F 32.1 °F 21.0 °F 51% 30.35 in 10.0 mi WSW 8.1 mph - N/A   Clear
3:53 PM 37.0 °F 30.4 °F 21.9 °F 54% 30.34 in 10.0 mi SW 9.2 mph - N/A   Clear
4:53 PM 35.1 °F 32.2 °F 21.9 °F 59% 30.34 in 10.0 mi South 3.5 mph - N/A   Clear
5:53 PM 28.9 °F 21.9 °F 19.0 °F 67% 30.34 in 10.0 mi SSW 6.9 mph - N/A   Clear
6:53 PM 30.9 °F 22.8 °F 19.0 °F 61% 30.34 in 10.0 mi South 9.2 mph - N/A   Clear
7:53 PM 30.0 °F 21.1 °F 19.9 °F 66% 30.34 in 10.0 mi South 10.4 mph - N/A   Clear
8:53 PM 30.9 °F 22.2 °F 19.9 °F 64% 30.33 in 10.0 mi SSW 10.4 mph - N/A   Clear
9:53 PM 30.0 °F 21.1 °F 19.9 °F 66% 30.33 in 10.0 mi SSW 10.4 mph - N/A   Clear
10:53 PM 28.0 °F 19.3 °F 19.0 °F 69% 30.32 in 10.0 mi SSW 9.2 mph - N/A   Clear
11:53 PM 27.0 °F 17.3 °F 19.0 °F 72% 30.32 in 10.0 mi SSW 10.4 mph - N/A   Clear